Showing default

GJZ 05, 62294

Orbit data source: Space-Track

GJZ 05, 62294 is a payload satellite owned by CASC (CN) in LEO that was launched on Thu, 12 Dec 2024 UTC via a CHANG ZHENG 2D/YZ-3 launch vehicle from the Jiuquan Satellite Launch Center, China (JSC). Payloads include a variety of satellites, spacecraft, and rockets equipped with specific instruments for various scientific and technological missions. These include communications satellites like Starlink; space stations such as the ISS; scientific satellites like the Hubble; Earth observation satellites from companies like Planet Labs, Umbra, and HawkEye 360; GPS; miniature CubeSats for education and research; and military/defense satellites.

Loading next visibility...
GJZ 05 details
Identifier
62294, 2024-238E
Orbit
LEO
Last TLE update9 hours ago
Origin
Flag of CNCASC (CN / PRC)
ManufacturerHITSAT
MissionOperational spacecraft
Bus & MotorHARBFLAT, Unknown motor
Mass~150 kg wet, ~150 kg dry
Launch date (UTC)
2024-12-12 (2 weeks ago)
Launch vehicle
CHANG ZHENG 2D/YZ-3
Launch site
Jiuquan Satellite Launch Center, China (JSC)
Object type
Payload
Rocket body
Debris
Shape & HBRUnknown
Radar Cross SectionLarge (>1 m²)

Expand to show TLE details & history

TLE from 9 hours ago
0 GJZ 05
1 62294U 24238E   24361.08996591  .00000199  00000-0  33175-3 0  9996
2 62294  59.9120  99.6154 0009930 297.0654  62.9340 13.75095123  1909
Epoch: 2024-12-26T02:09Z
Definitive object data (Epoch: 2024-12-26T02:09:33.054Z)
Latitude-0.00003°
Longitude-27.8467°
Altitude979.501 km
Speed7.364 km/s
True Right ascension06h 38m 27s
True Declination0° 00' 00"
Sunlit
Object was in full shadow at TLE epoch
Visualization TLE readout
Latitude51.15898°
Longitude16.72624°
Altitude992.493 km
Speed7.359 km/s
Apparent Right ascension03h 13m 26s
Apparent Declination54° 01' 21"
Sunlit
Object is in full shadow
Visualization observer readout
Local Sidereal Time10:32:57
Azimuth323.582° NNW
Elevation21.472°
Doppler factor1
Orbital elements
Apogee altitude987.911 km
Perigee altitude973.297 km
Semi-major axis7,358.741 km
Eccentricity0.000993
Inclination59.912°
RAAN99.6154°
Arg. of periapsis297.0654°
True anomaly63.03538°
Mean anomaly62.934°
Eccentric anomaly62.98469°
Mean motion3.43825 °/min
BSTAR0.00033175
Orbital period104.7 mins
Loading maneuver chart data...
Loading historical data...
Loading historical data...
Loading historical data...
Loading historical data...
Loading historical data...
Loading historical data...
Loading historical data...
Other satellites on launch #238 in the year 2024 (2024-12-12 UTC)

GJZ 05 Visibility forecast

Observer location: undefined°, undefined

Span
Click to sort rows by Start time (UTC) header in descending order
Start Az.
Max El. time (UTC)
Max El. Az.
Max El.
End time (UTC)
End Az.
5 mins2024-12-26 11:11:38.926Z323.393° NNW2024-12-26 11:12:38.926Z336.388° NNW20.273°2024-12-26 11:16:38.926Z17.615° NNE
7 mins2024-12-26 14:51:38.926Z351.237° N2024-12-26 14:54:38.926Z23.571° NE18.199°2024-12-26 14:58:38.926Z64.889° ENE
11 mins2024-12-26 16:39:38.926Z329.421° NNW2024-12-26 16:44:38.926Z49.901° ENE41.445°2024-12-26 16:50:38.926Z126.947° SE
9 mins2024-12-26 18:28:38.926Z291.286° WNW2024-12-26 18:32:38.926Z245.288° WSW23.973°2024-12-26 18:37:38.926Z191.576° SSW
10 mins2024-12-27 07:57:38.926Z179.345° S2024-12-27 08:01:38.926Z122.366° SE33.392°2024-12-27 08:07:38.926Z52.407° ENE
10 mins2024-12-27 09:45:38.926Z253.557° W2024-12-27 09:50:38.926Z327.026° NNW34.138°2024-12-27 09:55:38.926Z26.527° NE
|